Lexington Weather

Lexington, Massachusetts, USA

72°F
8/7/2020 11:09am 
  • Lexington Conditions: Clear
  • Temperature: 72.0°F / 22.2°CWarmer 2.4°F than last hour.
  • Dew Point: 62.8°FIncreased 1.1°Fsince last hour.
  • Relative Humidity: 73%Decreased 3.0% since last hour.
  • Wind: Wind from WSW WSW Calm, 10-min avg: 1 mph, gust: 2 mph
  • Barometer: 30.14 in Steady
  • Visibility: 10 miles
  • Rain Today: 0.00 in
  •   

Regional Weather Roundup
for Boston / Norton, MA

        
000
ASUS41 KBOX 031204
RWRBOX

REGIONAL WEATHER ROUNDUP
NATIONAL WEATHER SERVICE BOSTON/NORTON MA
800 AM EDT MON AUG 03 2020

NOTE:  "FAIR" INDICATES FEW OR NO CLOUDS BELOW 12,000 FEET WITH NO 
SIGNIFICANT WEATHER AND/OR OBSTRUCTIONS TO VISIBILITY.

MAZALL-031300-
EASTERN MASSACHUSETTS
  
CITY           SKY/WX    TMP DP  RH WIND       PRES   REMARKS
BOSTON         MOSUNNY   82  70  66 SW16G24   29.90S                  
6HR MIN TEMP:  76; 6HR MAX TEMP:  82;                                

BEVERLY        SUNNY     82  71  69 SW8G20    29.89R                  
LAWRENCE       SUNNY     80  72  76 SW16G23   29.90R                  
BEDFORD        MOSUNNY   81  72  74 SW14      29.89R                  
BLUE HILL      NOT AVBL                                               
NORWOOD        MOSUNNY   83  71  67 S9        29.92R                  
MARSHFIELD     SUNNY     84  75  74 SW9G15    29.92S HX  92           
PLYMOUTH       SUNNY     80  75  84 SW12      29.95R                  
TAUNTON        MOSUNNY   83  75  77 SW9       29.94R HX  90           
NEW BEDFORD    SUNNY     80  74  81 SW10      29.95S                  
$$

MAZALL-031300-
CAPE COD AND THE ISLANDS
  
CITY           SKY/WX    TMP DP  RH WIND       PRES   REMARKS
FALMOUTH       MOSUNNY   81  75  83 SW14G25   29.97R                  
HYANNIS        MOSUNNY   82  76  81 SW15      29.95S                  
CHATHAM        CLOUDY    80  75  84 SW9G16    29.98R                  
PROVINCETOWN   SUNNY     78  75  90 SW15G23   29.94S                  
NANTUCKET      MOSUNNY   76  73  91 SW15      29.99R                  
MARTHAS VNYRD  SUNNY     79  75  87 SW8       29.98R                  
$$
 
MAZALL-031300-
CENTRAL AND WESTERN MASSACHUSETTS
  
CITY           SKY/WX    TMP DP  RH WIND       PRES   REMARKS
WORCESTER      SUNNY     75  67  76 SW15      29.96R                  
6HR MIN TEMP:  74; 6HR MAX TEMP:  76;                                

FITCHBURG      SUNNY     79  67  66 SW10G18   29.92R                  
ORANGE         MOSUNNY   76  69  79 SW12      29.94R                  
SPRINGFIELD    MOSUNNY   78  65  64 W10       29.93R                  
WESTFIELD      MOSUNNY   76  68  76 S6        29.94R                  
NORTH ADAMS    PTSUNNY   76  62  62 W9        29.94R                  
PITTSFIELD     MOSUNNY   72  65  78 SW6       29.97R                  
$$
 
RIZALL-031300-
RHODE ISLAND
  
CITY           SKY/WX    TMP DP  RH WIND       PRES   REMARKS
PROVIDENCE     MOSUNNY   83  72  69 SW10      29.96R                  
6HR MIN TEMP:  77; 6HR MAX TEMP:  83;                                

NEWPORT        MOSUNNY   80  74  81 SW7       29.97R                  
BLOCK ISLAND   PTSUNNY   76  73  91 SW16      29.99R FOG              
SMITHFIELD     MOSUNNY   78  73  84 SW8       29.97R                  
WESTERLY       SUNNY     79  71  76 SW6       29.97R                  
$$
 
CTZALL-031300-
CONNECTICUT
  
CITY           SKY/WX    TMP DP  RH WIND       PRES   REMARKS
BRADLEY INTL   PTSUNNY   79  64  60 SW12      29.94R                  
6HR MIN TEMP:  75; 6HR MAX TEMP:  79;                                

HARTFORD       MOSUNNY   81  65  58 VRB6      29.95R                  
BRIDGEPORT     SUNNY     81  64  56 W10       29.97R                  
DANBURY        MOSUNNY   76  63  64 SW10      30.00R                  
GROTON         SUNNY     80  70  71 W14       29.96R                  
NEW HAVEN      SUNNY     82  68  62 SW7       29.97R                  
CHESTER        NOT AVBL                                               
MERIDEN        MOSUNNY   79  64  60 VRB6      29.96R                  
WILLIMANTIC    SUNNY     79  66  64 SW5       29.96R                  
OXFORD         MOSUNNY   74  65  73 W6        30.00R                  
$$

MEZ002-015-021-024-NHZ003-005-008-011-012-014-VTZ005-008-031300-
NORTHERN NEW ENGLAND
  
CITY           SKY/WX    TMP DP  RH WIND       PRES   REMARKS
PORTLAND ME    MOSUNNY   80  72  76 SW8       29.85S                  
6HR MIN TEMP:  73; 6HR MAX TEMP:  80;                                

BANGOR ME      FOG       73  71  93 S9        29.84R VSB 1            
CONCORD NH     MOSUNNY   80  68  66 SW13      29.88R                  
MANCHESTER NH  PTSUNNY   81  73  76 SW8       29.87R                  
NASHUA NH      MOSUNNY   80  73  79 SW9       29.90R                  
PORTSMOUTH NH  MOSUNNY   82  71  68 SW10      29.86R                  
JAFFREY NH     MOSUNNY   74  68  81 SW8       29.94R                  
KEENE NH       MOSUNNY   75  70  84 SW12      29.92R                  
BURLINGTON VT  PTSUNNY   77  61  57 S12       29.80R                  
MT. WASHINGTON NOT AVBL                                               
$$

NYZ052-076-031300-
EASTERN NEW YORK
  
CITY           SKY/WX    TMP DP  RH WIND       PRES   REMARKS
ALBANY         PTSUNNY   74  61  63 SW12      29.93R                  
6HR MIN TEMP:  66; 6HR MAX TEMP:  74;                                

NEW YORK CITY  PTSUNNY   81  60  48 W10       29.99R                  
6HR MIN TEMP:  81; 6HR MAX TEMP:  86;                                

$$
 
ANZALL-031300-
MARINE OBSERVATIONS
  
STATION/POSITION TIME  TEMP    WIND        PRES    VSBY  WAVE
                       AIR SEA DIR/SP/G                  HT/PER
                 (UTC) (F)     (DEG/KT/KT) (MB)    (MI)  (FT/S)
BOSTON BUOY      1150   73 71  180/ 12/ 14 1011.6R         2/ 5
BUZZARDS BAY     1100          230/ 22/ 24 1015.0R
NANTUCKET SOUND  1140      76  220/ 16/ 17 1014.0R
MASS BAY-STELLWA 1104   72     220/ 12/ 14 1010.2R  1 7/8  3/ 5
ISLE OF SHOALS   1100   74     200/ 21/ 22 1010.7S
S OF BLOCK IS    1126      71                N/A           6/ 7
$$

......................KEY.........................
  SKY/WX - SKY CONDITION/PRESENT WEATHER
  TMP    - TEMPERATURE IN FAHRENHEIT
  DWPT   - DEWPOINT IN FAHRENHEIT
  RH     - RELATIVE HUMIDITY IN PERCENT
  WIND   - DIRECTION AND SPEED IN MPH
  PRES   - MEAN SEA LEVEL PRESSURE IN INCHES OF HG
  WCI    - WIND CHILL INDEX
  VSB    - VISIBILITY IN MILES
  HX     - HEAT INDEX
  TC     - TEMPERATURE IN CELSIUS
  VRB    - VARIABLE WIND DIRECTION
  N/A    - NOT AVAILABLE
  
      

Other recent Regional Weather Roundups

Fri Aug 7, 10:04am

Fri Aug 7, 9:04am

Fri Aug 7, 8:04am

Fri Aug 7, 7:04am

Fri Aug 7, 6:04am

Fri Aug 7, 5:04am

Fri Aug 7, 4:04am

Fri Aug 7, 3:04am

Fri Aug 7, 2:04am

Fri Aug 7, 1:05am

Fri Aug 7, 12:04am

Thu Aug 6, 11:04pm

Thu Aug 6, 10:04pm

Thu Aug 6, 9:04pm

Thu Aug 6, 8:04pm

Thu Aug 6, 7:04pm

Thu Aug 6, 6:04pm

Thu Aug 6, 5:04pm

Thu Aug 6, 4:05pm

Thu Aug 6, 3:04pm

Thu Aug 6, 2:05pm

Thu Aug 6, 1:04pm

Thu Aug 6, 12:04pm

Thu Aug 6, 11:04am

Thu Aug 6, 10:04am

Thu Aug 6, 9:04am

Thu Aug 6, 8:04am

Thu Aug 6, 7:04am

Thu Aug 6, 6:04am

Thu Aug 6, 5:04am

Thu Aug 6, 4:04am

Thu Aug 6, 3:04am

Thu Aug 6, 2:05am

Thu Aug 6, 1:04am

Thu Aug 6, 12:04am

Wed Aug 5, 11:04pm

Wed Aug 5, 10:04pm

Wed Aug 5, 9:04pm

Wed Aug 5, 8:05pm

Wed Aug 5, 7:04pm

Wed Aug 5, 6:04pm

Wed Aug 5, 5:04pm

Wed Aug 5, 4:05pm

Wed Aug 5, 3:04pm

Wed Aug 5, 2:04pm

Wed Aug 5, 1:04pm

Wed Aug 5, 12:04pm

Wed Aug 5, 11:04am

Wed Aug 5, 10:04am

Wed Aug 5, 9:04am

Wed Aug 5, 8:04am

Wed Aug 5, 7:04am

Wed Aug 5, 6:04am

Wed Aug 5, 5:04am

Wed Aug 5, 4:04am

Wed Aug 5, 3:04am

Wed Aug 5, 2:05am

Wed Aug 5, 1:04am

Wed Aug 5, 12:05am

Tue Aug 4, 11:05pm

Tue Aug 4, 10:05pm

Tue Aug 4, 9:04pm

Tue Aug 4, 8:04pm

Tue Aug 4, 7:05pm

Tue Aug 4, 6:05pm

Tue Aug 4, 5:05pm

Tue Aug 4, 4:05pm

Tue Aug 4, 3:04pm

Tue Aug 4, 2:05pm

Tue Aug 4, 1:04pm

Tue Aug 4, 12:05pm

Tue Aug 4, 11:04am

Tue Aug 4, 10:04am

Tue Aug 4, 9:04am

Tue Aug 4, 8:04am

Tue Aug 4, 7:04am

Tue Aug 4, 6:04am

Tue Aug 4, 5:04am

Tue Aug 4, 4:04am

Tue Aug 4, 3:04am

Tue Aug 4, 2:04am

Tue Aug 4, 1:04am

Tue Aug 4, 12:04am

Mon Aug 3, 11:04pm

Mon Aug 3, 10:04pm

Mon Aug 3, 9:04pm

Mon Aug 3, 8:05pm

Mon Aug 3, 7:04pm

Mon Aug 3, 6:04pm

Mon Aug 3, 5:04pm

Mon Aug 3, 4:05pm

Mon Aug 3, 3:04pm

Mon Aug 3, 2:04pm

Mon Aug 3, 1:04pm

Mon Aug 3, 12:05pm

Mon Aug 3, 11:04am

Mon Aug 3, 10:04am

Mon Aug 3, 9:05am

Mon Aug 3, 7:04am

Mon Aug 3, 6:04am

Mon Aug 3, 5:04am

Mon Aug 3, 4:04am

Mon Aug 3, 3:04am

Mon Aug 3, 2:04am

Mon Aug 3, 1:04am

Mon Aug 3, 12:05am

Sun Aug 2, 11:04pm

Sun Aug 2, 10:04pm

Sun Aug 2, 9:04pm

Sun Aug 2, 8:04pm

Sun Aug 2, 7:04pm

Sun Aug 2, 6:04pm

Sun Aug 2, 5:04pm

Sun Aug 2, 4:05pm

Sun Aug 2, 3:04pm

Sun Aug 2, 2:05pm

Sun Aug 2, 1:04pm

Sun Aug 2, 12:04pm

Sun Aug 2, 11:04am

Sun Aug 2, 10:04am

Sun Aug 2, 9:05am

Sun Aug 2, 8:05am

Sun Aug 2, 7:04am

Sun Aug 2, 6:04am

Sun Aug 2, 5:04am

Sun Aug 2, 4:05am

Sun Aug 2, 3:04am

Sun Aug 2, 2:04am

Sun Aug 2, 1:04am

Sun Aug 2, 12:05am

Sat Aug 1, 11:04pm

Sat Aug 1, 10:04pm

Sat Aug 1, 9:04pm

Sat Aug 1, 8:05pm

Sat Aug 1, 7:04pm

Sat Aug 1, 6:04pm

Sat Aug 1, 5:05pm

Sat Aug 1, 4:05pm

Sat Aug 1, 3:04pm

Sat Aug 1, 2:04pm

Sat Aug 1, 1:04pm

Sat Aug 1, 12:04pm

Sat Aug 1, 11:05am

Sat Aug 1, 10:05am

Sat Aug 1, 9:04am

Sat Aug 1, 8:04am

Sat Aug 1, 7:04am

Sat Aug 1, 6:04am

Sat Aug 1, 5:04am

Sat Aug 1, 4:05am

Sat Aug 1, 3:04am

Sat Aug 1, 2:04am

Sat Aug 1, 1:04am

Sat Aug 1, 12:05am

Fri Jul 31, 11:05pm

Fri Jul 31, 10:04pm

Fri Jul 31, 9:04pm

Fri Jul 31, 8:05pm

Fri Jul 31, 7:05pm

Fri Jul 31, 6:04pm

Fri Jul 31, 5:04pm

Fri Jul 31, 4:05pm

Fri Jul 31, 3:04pm

Fri Jul 31, 2:05pm

Fri Jul 31, 1:04pm

Fri Jul 31, 12:04pm

Fri Jul 31, 11:04am

Meta data:

ID: 07e1ee1d-0379-460b-96eb-cc197e71a726
Link: https://api.weather.gov/products/07e1ee1d-0379-460b-96eb-cc197e71a726